Location: Unspecified
(28.8769°N, 0.0000°E)
Time: 04:52:13
(UTC+00:00)

BlueWalker 3 - Visible Passes

Search period start: 05 April 2026 00:00
Search period end: 15 April 2026 00:00
Orbit: 451 x 457 km, 53.2° (Epoch: 29 March)

Date Brightness Start Highest point End Pass type
(mag) Time Alt. Az. Time Alt. Az. Time Alt. Az.
8 Apr 4.5 20:37:07 10° NNW 20:37:52 15° NNW 20:37:52 15° NNW visible
9 Apr 3.5 20:00:54 10° NNW 20:03:03 23° NNE 20:03:03 23° NNE visible
10 Apr 3.4 19:24:46 10° N 19:27:26 19° NE 19:28:17 18° ENE visible
10 Apr 5.1 21:01:43 10° WNW 21:01:59 11° WNW 21:01:59 11° WNW visible
11 Apr 3.9 18:48:48 10° N 18:50:52 15° NE 18:52:56 10° ENE visible
11 Apr 3.5 20:25:01 10° NW 20:27:18 32° W 20:27:18 32° W visible
12 Apr 1.9 19:48:25 10° NW 19:51:58 66° SW 19:52:43 49° S visible
13 Apr 1.6 19:11:54 10° NW 19:15:29 81° NE 19:18:12 16° SE visible
